User: anonymous   Login
Location: Sandbanks Provincial Park
(47.6073°N, 57.6428°W)
Time: 17:54:06
(UTC-02:-30)
Language:

Cosmos 2034 Rocket - Orbit

View from above orbital plane
View from above orbital plane
View from above satellite
View from above satellite

Ground track
Ground track

The orbit data is extracted from the following two-line orbital elements,

1 20150U 89059B   16272.60510487  .00000103  00000-0  91696-4 0  9997
2 20150  82.9367 288.1416 0027614 294.0218 184.6281 13.75620698364427
Epoch (UTC): 28 September 2016 14:31:21
Eccentricity: 0.0027614
inclination: 82.9367°
perigee height: 959 km
apogee height: 1000 km
right ascension of ascending node: 288.1416°
argument of perigee: 294.0218°
revolutions per day: 13.75620698
mean anomaly at epoch: 184.6281°
orbit number at epoch: 36442

The dashed part of the orbit path shows where the satellite is in the earth's shadow,  

DLR